Station Nord

KL  EN  DA
ASIAQ
Weather Now GREENLAND SURVEY
Updated [WGT/WGST] Temperature [°C] Wind [m/s] Air pressure [hPa] Relative humidity [%] Precipitation [mm]
Present Wind chill Speed Max
05.09 07:00-3,10,01,0 ⇒2,0100086n/a
05.09 06:00-2,1-4,22,0 ⇒2,0100086n/a
05.09 05:00-2,2-4,32,0 ⇒2,0100088n/a
05.09 04:00-1,4-4,22,0 ⇗3,0100080n/a
05.09 03:00-1,5-4,93,0 ⇗3,0100082n/a
05.09 02:00-1,3-4,02,0 ⇗2,0100079n/a
05.09 01:00-1,50,01,0 ⇓1,0100075n/a
05.09 00:00-1,70,00,0 ⇓1,0100077n/a
04.09 23:00-1,30,01,0 ⇖1,0100170n/a
04.09 22:00-1,50,01,0 ⇑3,0100170n/a
04.09 21:00-1,7-4,52,0 ⇑3,0100171n/a
04.09 20:00-1,5-4,93,0 ⇖3,0100172n/a
04.09 19:00-1,4-4,83,0 ⇖4,0100280n/a
04.09 18:00-0,9-5,14,0 ⇖4,0100275n/a
04.09 17:00-0,4-4,13,0 ⇑4,0100375n/a
04.09 16:00-0,6-3,83,0 ⇖3,0100375n/a
04.09 15:000,0-1,82,0 ⇑3,0100473n/a
04.09 14:00-1,1-3,12,0 ⇖2,0100480n/a
04.09 13:00-1,7-4,52,0 ⇖3,0100582n/a
04.09 12:00-1,20,01,0 ⇒1,0100578n/a
04.09 11:00-1,8-5,23,0 ⇒3,0100682n/a
04.09 10:00-2,4-4,62,0 ⇗2,0100684n/a
04.09 09:00-3,0-6,02,0 ⇗3,0100685n/a
04.09 08:00-3,4-5,72,0 ⇒2,0100786n/a
04.09 07:00-3,7-6,02,0 ⇒2,0100786n/a
Position: (81.603333,-16.663333)

[Back]